Карточка аэропорта URKK

Внимание!
Информация на этой странице в стадии наполнения.
Если вы не увидели какой-то информации, или заметили неточность - пожалуйста сообщите нам!
Спасибо!
Команда RU-STAFF
Название аэропортаПашковский
Название аэропорта (англ.)Pashkovskiy
Превышение120 ft. (36.6 m.)
Координаты45°2.0820000000001', 39°10.218'
Высота перехода4000 ft
Эшелон переходаFL60 (QNH >= 977); FL70 (QNH < 977)
Коды ответчика1030-1037
Зона ОрВДРостов-на-Дону РПИ (URRV)
Данные METARURKK 050830Z 08009MPS 9999 BKN023 01/M04 Q1031 R05R/CLRD70 NOSIG RMK QFE770
Проноз погоды (TAF)URKK 050753Z 0509/0609 06007G12MPS 9999 BKN016 TEMPO 0509/0603 08012G17MPS
NOTAMshow/hide NOTAM
AWOS   TABLE

Информация о ВПП

ВПП Длина ВПП (м.) Покрытие Курс ВПП Частота ILS
05L2200Асфальтобетон46 
05R3000Железобетон46 
23R2200Асфальтобетон226 
23L3000Железобетон226 

Диспетчерские позиции

Позывной Наименование органа УВД Частота
URKK_APPКраснодар-Подход129.6
URKK_GNDКраснодар-Руление119.0
URKK_R_APPКраснодар-Круг121.3
URKK_TWRКраснодар-Вышка118.2



Спутниковое изображение